Location: Carnières
(50.1682°N, 3.3474°E)
Time: 20:06:20
(UTC+00:00)

SL-16 R/B - Pass Details

Date: 08 August 2024
Orbit: 842 x 845 km, 71.0° (Epoch: 10 September)

Event Time Altitude Azimuth Distance (km) Brightness Sun altitude
Exits shadow 03:07:17 - 275° (W) 3,165 4.8 -11.2°
Reaches altitude 10° 03:10:00 10° 293° (WNW) 2,471 4.4 -10.9°
Maximum altitude 03:13:22 16° 330° (NNW) 2,090 4.4 -10.5°
Drops below altitude 10° 03:16:44 10° 6° (N) 2,477 5.4 -10.1°
Sets 03:20:17 0° 29° (NNE) 3,416 6.8 -9.6°
